星链-35337(STARLINK-35337)

导读 | 豆包AI

STARLINK-35337是美国于2025年9月29日发射的星链系列卫星,隶属于太空探索技术公司 SpaceX 主导的星链卫星互联网星座项目。星链计划旨在构建全球卫星互联网覆盖网络,为全球偏远地区、高延迟网络覆盖区域提供高速低延迟的互联网接入服务,该卫星的发射进一步完善了星链星座的全球服务能力。

基本信息
目录编号:
65831
目录名称:
STARLINK-35337
国际标识:
2025-221J
轨道中心:
EARTH
卫星名称:
星链-35337
卫星全名:
星链-35337(STARLINK-35337)
卫星状态:
在轨 (已飞行187 天)
发射日期:
2025-09-29 UTC
国别 :
美国 (US)
星等 :
--
轨道信息
数据来源 国际轨道数据
星历时间: 2026-04-04T05:32:23+0800
12小时前
查看轨道信息
半长轴: 6853.343km
偏心率: 0.0001169
轨道倾角: 53.159°
近地点辐角 115.056°
升交点赤经 331.200°
平近点角 245.056°
近地点: 474.404km
远地点: 476.008km
周期: 94.105分钟
每日圈数: 15.302031
详细信息
固有亮度:
5
最大亮度:
2.5
卫星平台:
Starlink V1.0
覆盖范围:
全球
运营商:
太空探索技术公司
运营商所在国:
美国
制造商(研发单位):
太空探索技术公司
制造商所在国:
美国
使用方式:
暂无
卫星简介
Starlink 计划是 SpaceX 推出的全球卫星互联网项目,通过发射低轨道卫星,为全球尤其是偏远地区提供高速、低延迟的互联网服务。自 2019 年起,Starlink 已部署数千颗卫星,旨在缩小全球数字鸿沟,推动互联网普及。该项目还为军事、航空等行业提供通信支持,带来广泛经济效益。
2D轨道图
3D轨道图
轨道高度分析图
轨道倾角分析图
轨道综合分析图
查看轨道综合分析图